Location: Anan
(43.3550°N, 0.8171°E)
Time: 10:48:04
(UTC+00:00)

Spot 2 Rocket - Pass Details

Date: 14 May 2026
Orbit: 752 x 765 km, 98.3° (Epoch: 6 June)

Event Time Altitude Azimuth Distance (km) Brightness Sun altitude
Exits shadow 20:02:06 10° 134° (SE) 2,267 5.3 -8.4°
Maximum altitude 20:06:40 37° 68° (ENE) 1,159 4.2 -9.1°
Drops below altitude 10° 20:11:16 10° 2° (N) 2,291 6.5 -9.7°
Sets 20:13:42 0° 355° (N) 3,222 7.4 -10.1°
